Flag Weather past 2 weeks in Tábor, Czech Republic

Now
32 °F

Chilly.


Feels Like: 26 °F
Forecast: 36 / 42 °F
Wind: 6 mph from Southeast

Location: Kocelovice

Current Time: Nov 29, 2014 at 4:38:19 AM

Latest Report: Nov 29, 2014 at 3:00 AM


Visibility: 9 mi

Pressure: 30.11 "Hg

Humidity: 92%

Dew point: 29 °F

Location of TáborLocation

Historic Weather in Tábor — Graph

°F

Tábor temperature yesterday

Maximum temperature yesterday: 31 °F (at 4:00 PM)
Minimum temperature yesterday: 30 °F (at 7:00 AM)
Average temperature yesterday: 31 °F

Past Weeks' High & Low Weather Summary

 TemperatureHumidityPressure
High52 °F (Nov 15, 2:00 PM)100% (Nov 17, 3:00 AM)30.38 "Hg (Nov 17, 3:00 AM)
Low30 °F (Nov 28, 7:00 AM)74% (Nov 16, 3:00 PM)29.50 "Hg (Nov 16, 4:00 AM)
Average39 °F90%30.06 "Hg
* Reported Nov 14 3:00 AM — Nov 29 3:00 AM, Tábor, Weather by CustomWeather, © 2014

Note: Actual official high and low records may vary slightly from our data, if they occured in-between our weather recording intervals... More about our weather records

Advertising

Tábor weather history for previous 24 hours

 ConditionsComfort  
Time TempWeatherWind HumidityBarometerVisibility
3:00 AM
Nov 29
32 °FChilly.6 mph92%30.11 "Hg9 mi
2:00 AM32 °FChilly.8 mph90%30.11 "Hg12 mi
1:00 AM31 °FChilly.7 mph90%30.11 "Hg9 mi
12:00 AM31 °FChilly.7 mph92%30.11 "Hg7 mi
11:00 PM
Nov 28
31 °FChilly.8 mph92%30.11 "Hg8 mi
10:00 PM31 °FChilly.7 mph92%30.11 "Hg8 mi
9:00 PM31 °FFog.5 mph93%30.10 "Hg6 mi
8:00 PM31 °FFog.7 mph93%30.09 "Hg6 mi
7:00 PM31 °FFog.7 mph93%30.08 "Hg6 mi
6:00 PM31 °FFog.8 mph93%30.07 "Hg6 mi
5:00 PM31 °FLow clouds.8 mph92%30.06 "Hg6 mi
4:00 PM31 °FLow clouds.8 mph92%30.06 "Hg7 mi
3:00 PM31 °FLow clouds.8 mph92%30.05 "Hg6 mi
2:00 PM31 °FFog.6 mph93%30.04 "Hg5 mi
1:00 PM31 °FFog.7 mph93%30.06 "Hg5 mi
12:00 PM31 °FFog.7 mph94%30.06 "Hg4 mi
11:00 AM31 °FFog.6 mph95%30.06 "Hg3 mi
10:00 AM31 °FFog.6 mph96%30.06 "Hg2 mi
9:00 AM30 °FFog.5 mph96%30.05 "Hg2 mi
8:00 AM30 °FFog.6 mph97%30.04 "Hg2 mi
7:00 AM30 °FFog.5 mph96%30.03 "Hg2 mi
6:00 AM30 °FFog.6 mph96%30.03 "Hg1 mi
5:00 AM30 °FFog.7 mph96%30.02 "Hg2 mi
4:00 AM30 °FFog.6 mph95%30.02 "Hg2 mi
Weather by CustomWeather, © 2014

See weather overviewHow to use our weather pages